| time (UTC) | temp C | wind direction | speed KPH | gust KPH | rain 1hr cm | rain 24hr cm | rain mn cm | humidity % | barometer mb |
| 20260504110551 | 8 | 201 | 1.6 | 3.2 | 0.00 | 0.00 | 0.00 | 68 | 1015.2 |
| 20260504100550 | 9 | 145 | 1.6 | 4.8 | 0.00 | 0.00 | 0.00 | 67 | 1014.9 |
| 20260504081557 | 10 | 0 | 0.0 | 1.6 | 0.00 | 0.00 | 0.00 | 61 | 1015.4 |
| 20260504081049 | 10 | 0 | 0.0 | 3.2 | 0.00 | 0.00 | 0.00 | 61 | 1015.4 |
| 20260504080554 | 9 | 149 | 0.0 | 3.2 | 0.00 | 0.00 | 0.00 | 59 | 1015.4 |
| 20260504050550 | 8 | 132 | 0.0 | 1.6 | 0.00 | 0.00 | 0.00 | 56 | 1015.9 |
| 20260504050106 | 8 | 149 | 0.0 | 1.6 | 0.00 | 0.00 | 0.00 | 55 | 1015.7 |
| 20260504045548 | 8 | 148 | 0.0 | 0.0 | 0.00 | 0.00 | 0.00 | 55 | 1015.7 |
| 20260504045051 | 9 | 0 | 0.0 | 3.2 | 0.00 | 0.00 | 0.00 | 54 | 1015.7 |
| 20260504044554 | 9 | 0 | 0.0 | 3.2 | 0.00 | 0.00 | 0.00 | 53 | 1015.7 |
| 20260504044048 | 9 | 0 | 1.6 | 3.2 | 0.00 | 0.00 | 0.00 | 53 | 1015.7 |
| 20260504043548 | 9 | 167 | 0.0 | 3.2 | 0.00 | 0.00 | 0.00 | 53 | 1015.7 |
| 20260504043058 | 9 | 0 | 0.0 | 3.2 | 0.00 | 0.00 | 0.00 | 53 | 1015.7 |
| 20260504042548 | 8 | 155 | 0.0 | 3.2 | 0.00 | 0.00 | 0.00 | 53 | 1015.8 |
| 20260504042050 | 8 | 172 | 0.0 | 3.2 | 0.00 | 0.00 | 0.00 | 54 | 1015.8 |
| 20260504041550 | 8 | 0 | 0.0 | 3.2 | 0.00 | 0.00 | 0.00 | 55 | 1015.7 |
| 20260504041050 | 8 | 186 | 0.0 | 1.6 | 0.00 | 0.00 | 0.00 | 54 | 1015.7 |
| 20260504040550 | 9 | 186 | 0.0 | 3.2 | 0.00 | 0.00 | 0.00 | 54 | 1015.7 |
| 20260504035551 | 9 | 231 | 0.0 | 3.2 | 0.00 | 0.00 | 0.00 | 54 | 1015.8 |
| 20260504035049 | 9 | 170 | 0.0 | 3.2 | 0.00 | 0.00 | 0.00 | 53 | 1015.7 |
| 20260504034611 | 9 | 143 | 1.6 | 3.2 | 0.00 | 0.00 | 0.00 | 53 | 1015.7 |
| 20260504034053 | 9 | 127 | 1.6 | 3.2 | 0.00 | 0.00 | 0.00 | 53 | 1015.7 |
| 20260504033550 | 9 | 160 | 0.0 | 3.2 | 0.00 | 0.00 | 0.00 | 53 | 1015.6 |
| 20260504033050 | 10 | 167 | 0.0 | 3.2 | 0.00 | 0.00 | 0.00 | 52 | 1015.5 |
| 20260504032551 | 10 | 151 | 0.0 | 3.2 | 0.00 | 0.00 | 0.00 | 51 | 1015.6 |
| 20260504032049 | 10 | 214 | 1.6 | 3.2 | 0.00 | 0.00 | 0.00 | 51 | 1015.5 |
| 20260504031555 | 9 | 150 | 1.6 | 3.2 | 0.00 | 0.00 | 0.00 | 52 | 1015.5 |
| 20260504031050 | 8 | 162 | 1.6 | 3.2 | 0.00 | 0.00 | 0.00 | 53 | 1015.4 |
| 20260504030554 | 8 | 201 | 0.0 | 1.6 | 0.00 | 0.00 | 0.00 | 55 | 1015.4 |
| 20260504030053 | 8 | 225 | 1.6 | 1.6 | 0.00 | 0.00 | 0.00 | 58 | 1015.4 |
| 20260504025550 | 8 | 213 | 0.0 | 1.6 | 0.00 | 0.00 | 0.00 | 59 | 1015.3 |
| 20260504025050 | 8 | 0 | 0.0 | 3.2 | 0.00 | 0.00 | 0.00 | 56 | 1015.2 |
| 20260504024554 | 8 | 213 | 0.0 | 3.2 | 0.00 | 0.00 | 0.00 | 54 | 1015.3 |
| 20260504024050 | 8 | 212 | 0.0 | 1.6 | 0.00 | 0.00 | 0.00 | 54 | 1015.4 |
| 20260504023548 | 8 | 229 | 0.0 | 1.6 | 0.00 | 0.00 | 0.00 | 56 | 1015.3 |
| 20260504023053 | 8 | 229 | 0.0 | 1.6 | 0.00 | 0.00 | 0.00 | 56 | 1015.3 |
| 20260504022548 | 8 | 229 | 0.0 | 1.6 | 0.00 | 0.00 | 0.00 | 56 | 1015.4 |
| 20260504022051 | 8 | 0 | 0.0 | 1.6 | 0.00 | 0.00 | 0.00 | 58 | 1015.3 |
| 20260504021553 | 9 | 229 | 0.0 | 1.6 | 0.00 | 0.00 | 0.00 | 55 | 1015.4 |
| 20260504021052 | 9 | 222 | 1.6 | 1.6 | 0.00 | 0.00 | 0.00 | 54 | 1015.4 |
| 20260504020554 | 9 | 222 | 0.0 | 1.6 | 0.00 | 0.00 | 0.00 | 55 | 1015.4 |
| 20260504020115 | 9 | 222 | 0.0 | 1.6 | 0.00 | 0.00 | 0.00 | 54 | 1015.3 |
| 20260504015552 | 9 | 0 | 0.0 | 1.6 | 0.00 | 0.00 | 0.00 | 54 | 1015.2 |
| 20260504015051 | 9 | 222 | 0.0 | 1.6 | 0.00 | 0.00 | 0.00 | 52 | 1015.1 |
| 20260504014601 | 9 | 0 | 0.0 | 1.6 | 0.00 | 0.00 | 0.00 | 52 | 1015.0 |
| 20260504014051 | 9 | 0 | 0.0 | 1.6 | 0.00 | 0.00 | 0.00 | 57 | 1015.1 |
| 20260504013548 | 9 | 212 | 0.0 | 1.6 | 0.00 | 0.00 | 0.00 | 56 | 1015.2 |
| 20260504013111 | 9 | 0 | 1.6 | 1.6 | 0.00 | 0.00 | 0.00 | 57 | 1015.1 |
| 20260504012549 | 9 | 212 | 0.0 | 1.6 | 0.00 | 0.00 | 0.00 | 55 | 1015.0 |
| 20260504012048 | 10 | 194 | 0.0 | 1.6 | 0.00 | 0.00 | 0.00 | 55 | 1015.0 |
| 20260504011554 | 10 | 194 | 0.0 | 1.6 | 0.00 | 0.00 | 0.00 | 52 | 1015.0 |
| 20260504011050 | 10 | 0 | 0.0 | 1.6 | 0.00 | 0.00 | 0.00 | 52 | 1015.0 |
| 20260504010550 | 10 | 192 | 0.0 | 1.6 | 0.00 | 0.00 | 0.00 | 50 | 1015.0 |
| 20260504010057 | 10 | 0 | 0.0 | 1.6 | 0.00 | 0.00 | 0.00 | 52 | 1015.0 |
| 20260504005549 | 10 | 0 | 0.0 | 0.0 | 0.00 | 0.00 | 0.00 | 54 | 1015.0 |
| 20260504005048 | 10 | 0 | 0.0 | 1.6 | 0.00 | 0.00 | 0.00 | 54 | 1014.9 |
| 20260504004552 | 10 | 0 | 0.0 | 1.6 | 0.00 | 0.00 | 0.00 | 51 | 1014.8 |
| 20260504004051 | 10 | 199 | 0.0 | 1.6 | 0.00 | 0.00 | 0.00 | 49 | 1014.8 |
| 20260504003550 | 10 | 0 | 0.0 | 1.6 | 0.00 | 0.00 | 0.00 | 49 | 1014.8 |
| 20260504003053 | 11 | 0 | 0.0 | 1.6 | 0.00 | 0.00 | 0.00 | 49 | 1014.8 |
| 20260504002550 | 11 | 0 | 0.0 | 1.6 | 0.00 | 0.00 | 0.00 | 49 | 1014.6 |
| 20260504002050 | 11 | 276 | 0.0 | 1.6 | 0.00 | 0.00 | 0.00 | 49 | 1014.6 |
| 20260504001556 | 11 | 276 | 0.0 | 1.6 | 0.00 | 0.00 | 0.00 | 50 | 1014.5 |
| 20260504001050 | 11 | 276 | 0.0 | 1.6 | 0.00 | 0.00 | 0.00 | 48 | 1014.5 |
| 20260504000549 | 12 | 276 | 0.0 | 1.6 | 0.00 | 0.00 | 0.00 | 46 | 1014.5 |
| 20260504000053 | 12 | 276 | 0.0 | 1.6 | 0.00 | 0.00 | 0.00 | 46 | 1014.5 |
| 20260503235551 | 12 | 0 | 0.0 | 1.6 | 0.00 | 0.00 | 0.00 | 44 | 1014.6 |
| 20260503235048 | 13 | 0 | 0.0 | 0.0 | 0.00 | 0.00 | 0.00 | 42 | 1014.5 |
| 20260503234555 | 13 | 0 | 0.0 | 1.6 | 0.00 | 0.00 | 0.00 | 41 | 1014.4 |
| 20260503234049 | 14 | 0 | 0.0 | 3.2 | 0.00 | 0.00 | 0.00 | 39 | 1014.4 |
| 20260503233550 | 15 | 278 | 1.6 | 4.8 | 0.00 | 0.00 | 0.00 | 38 | 1014.3 |
| 20260503233052 | 15 | 275 | 1.6 | 4.8 | 0.00 | 0.00 | 0.00 | 37 | 1014.2 |
| 20260503232550 | 16 | 297 | 1.6 | 4.8 | 0.00 | 0.00 | 0.00 | 35 | 1014.3 |
| 20260503232047 | 16 | 297 | 1.6 | 3.2 | 0.00 | 0.00 | 0.00 | 37 | 1014.2 |
| 20260503231552 | 16 | 291 | 1.6 | 6.4 | 0.00 | 0.00 | 0.00 | 36 | 1014.1 |
| 20260503231048 | 16 | 291 | 0.0 | 8.0 | 0.00 | 0.00 | 0.00 | 37 | 1014.1 |
| 20260503230552 | 16 | 274 | 1.6 | 8.0 | 0.00 | 0.00 | 0.00 | 35 | 1014.1 |
| 20260503230053 | 15 | 131 | 0.0 | 8.0 | 0.00 | 0.00 | 0.00 | 34 | 1014.1 |
| 20260503225548 | 15 | 0 | 1.6 | 6.4 | 0.00 | 0.00 | 0.00 | 38 | 1014.1 |
| 20260503225048 | 15 | 296 | 1.6 | 6.4 | 0.00 | 0.00 | 0.00 | 36 | 1014.2 |
| 20260503224601 | 15 | 286 | 3.2 | 8.0 | 0.00 | 0.00 | 0.00 | 36 | 1014.2 |
| 20260503224048 | 15 | 264 | 3.2 | 8.0 | 0.00 | 0.00 | 0.00 | 35 | 1014.2 |
| 20260503223601 | 15 | 309 | 3.2 | 12.9 | 0.00 | 0.00 | 0.00 | 35 | 1014.1 |
| 20260503223448 | 15 | 288 | 0.0 | 12.9 | 0.00 | 0.00 | 0.00 | 38 | 1014.2 |
| 20260503222053 | 15 | 238 | 3.2 | 6.4 | 0.00 | 0.00 | 0.00 | 36 | 1014.1 |
| 20260503221601 | 15 | 300 | 1.6 | 6.4 | 0.00 | 0.00 | 0.00 | 36 | 1014.1 |
| 20260503221053 | 15 | 308 | 1.6 | 8.0 | 0.00 | 0.00 | 0.00 | 37 | 1014.1 |
| 20260503220551 | 15 | 302 | 3.2 | 11.3 | 0.00 | 0.00 | 0.00 | 36 | 1014.0 |
| 20260503220054 | 15 | 311 | 3.2 | 12.9 | 0.00 | 0.00 | 0.00 | 36 | 1014.0 |
| 20260503215550 | 15 | 293 | 6.4 | 16.1 | 0.00 | 0.00 | 0.00 | 34 | 1014.2 |
| 20260503215051 | 16 | 300 | 6.4 | 17.7 | 0.00 | 0.00 | 0.00 | 35 | 1014.2 |
| 20260503214553 | 16 | 181 | 4.8 | 17.7 | 0.00 | 0.00 | 0.00 | 33 | 1014.2 |
| 20260503214054 | 15 | 284 | 1.6 | 9.7 | 0.00 | 0.00 | 0.00 | 35 | 1014.2 |
| 20260503213550 | 15 | 309 | 4.8 | 11.3 | 0.00 | 0.00 | 0.00 | 37 | 1014.2 |
| 20260503213053 | 15 | 276 | 3.2 | 11.3 | 0.00 | 0.00 | 0.00 | 36 | 1014.2 |
| 20260503212551 | 15 | 282 | 3.2 | 9.7 | 0.00 | 0.00 | 0.00 | 35 | 1014.3 |
| 20260503212050 | 15 | 316 | 1.6 | 12.9 | 0.00 | 0.00 | 0.00 | 36 | 1014.1 |
| 20260503211559 | 15 | 248 | 3.2 | 12.9 | 0.00 | 0.00 | 0.00 | 38 | 1014.1 |
| 20260503211053 | 15 | 297 | 4.8 | 14.5 | 0.00 | 0.00 | 0.00 | 36 | 1014.2 |
| 20260503210548 | 15 | 323 | 4.8 | 14.5 | 0.00 | 0.00 | 0.00 | 34 | 1014.2 |
| 20260503210054 | 15 | 308 | 6.4 | 14.5 | 0.00 | 0.00 | 0.00 | 35 | 1014.2 |
| 20260503205549 | 15 | 316 | 6.4 | 14.5 | 0.00 | 0.00 | 0.00 | 33 | 1014.2 |
| 20260503205051 | 15 | 309 | 6.4 | 14.5 | 0.00 | 0.00 | 0.00 | 36 | 1014.3 |
| 20260503204616 | 15 | 288 | 3.2 | 14.5 | 0.00 | 0.00 | 0.00 | 36 | 1014.2 |
| 20260503204051 | 15 | 283 | 3.2 | 11.3 | 0.00 | 0.00 | 0.00 | 37 | 1014.2 |
| 20260503203550 | 15 | 296 | 3.2 | 11.3 | 0.00 | 0.00 | 0.00 | 34 | 1014.2 |
| 20260503203102 | 15 | 266 | 6.4 | 14.5 | 0.00 | 0.00 | 0.00 | 36 | 1014.3 |
| 20260503202553 | 15 | 293 | 6.4 | 14.5 | 0.00 | 0.00 | 0.00 | 38 | 1014.3 |
| 20260503202049 | 15 | 269 | 4.8 | 24.1 | 0.00 | 0.00 | 0.00 | 35 | 1014.4 |
| 20260503201558 | 15 | 253 | 4.8 | 24.1 | 0.00 | 0.00 | 0.00 | 35 | 1014.3 |
| 20260503201047 | 15 | 305 | 4.8 | 9.7 | 0.00 | 0.00 | 0.00 | 38 | 1014.5 |
| 20260503200548 | 15 | 262 | 3.2 | 9.7 | 0.00 | 0.00 | 0.00 | 38 | 1014.4 |
| 20260503200053 | 15 | 129 | 4.8 | 14.5 | 0.00 | 0.00 | 0.00 | 37 | 1014.4 |
| 20260503195549 | 15 | 307 | 4.8 | 17.7 | 0.00 | 0.00 | 0.00 | 36 | 1014.5 |
| 20260503195048 | 15 | 302 | 8.0 | 17.7 | 0.00 | 0.00 | 0.00 | 36 | 1014.6 |
| 20260503194609 | 15 | 274 | 8.0 | 14.5 | 0.00 | 0.00 | 0.00 | 36 | 1014.7 |
| 20260503194048 | 15 | 284 | 4.8 | 14.5 | 0.00 | 0.00 | 0.00 | 41 | 1014.8 |
| 20260503193548 | 15 | 255 | 8.0 | 22.5 | 0.00 | 0.00 | 0.00 | 38 | 1015.0 |
| 20260503193118 | 15 | 309 | 6.4 | 22.5 | 0.00 | 0.00 | 0.00 | 40 | 1014.9 |
| 20260503192550 | 15 | 315 | 8.0 | 22.5 | 0.00 | 0.00 | 0.00 | 41 | 1015.2 |
| 20260503192048 | 14 | 276 | 6.4 | 17.7 | 0.00 | 0.00 | 0.00 | 39 | 1014.9 |
| 20260503191611 | 15 | 274 | 4.8 | 12.9 | 0.00 | 0.00 | 0.00 | 37 | 1015.3 |
| 20260503191048 | 15 | 300 | 3.2 | 12.9 | 0.00 | 0.00 | 0.00 | 39 | 1015.1 |
| 20260503190550 | 15 | 265 | 3.2 | 17.7 | 0.00 | 0.00 | 0.00 | 39 | 1015.2 |
| 20260503190054 | 15 | 309 | 6.4 | 17.7 | 0.00 | 0.00 | 0.00 | 37 | 1015.3 |
| 20260503185553 | 15 | 304 | 6.4 | 17.7 | 0.00 | 0.00 | 0.00 | 42 | 1015.3 |
| 20260503185051 | 15 | 287 | 6.4 | 19.3 | 0.00 | 0.00 | 0.00 | 38 | 1015.4 |
| 20260503184556 | 15 | 319 | 6.4 | 19.3 | 0.00 | 0.00 | 0.00 | 40 | 1015.4 |
| 20260503184051 | 15 | 250 | 8.0 | 19.3 | 0.00 | 0.00 | 0.00 | 38 | 1015.6 |
| 20260503183554 | 15 | 290 | 8.0 | 19.3 | 0.00 | 0.00 | 0.00 | 36 | 1015.6 |
| 20260503183054 | 15 | 274 | 6.4 | 19.3 | 0.00 | 0.00 | 0.00 | 39 | 1015.6 |
| 20260503182551 | 15 | 303 | 8.0 | 19.3 | 0.00 | 0.00 | 0.00 | 41 | 1015.7 |
| 20260503182055 | 15 | 11 | 4.8 | 16.1 | 0.00 | 0.00 | 0.00 | 44 | 1015.7 |
| 20260503181554 | 15 | 317 | 6.4 | 16.1 | 0.00 | 0.00 | 0.00 | 40 | 1015.8 |
| 20260503181051 | 14 | 354 | 3.2 | 14.5 | 0.00 | 0.00 | 0.00 | 42 | 1015.8 |
| 20260503180551 | 13 | 274 | 6.4 | 14.5 | 0.00 | 0.00 | 0.00 | 41 | 1015.8 |
| 20260503180100 | 14 | 311 | 6.4 | 12.9 | 0.00 | 0.00 | 0.00 | 40 | 1015.9 |
| 20260503175549 | 14 | 326 | 6.4 | 16.1 | 0.00 | 0.00 | 0.00 | 41 | 1015.9 |
| 20260503175050 | 14 | 290 | 3.2 | 16.1 | 0.00 | 0.00 | 0.00 | 40 | 1016.1 |
| 20260503174555 | 15 | 314 | 4.8 | 12.9 | 0.00 | 0.00 | 0.00 | 40 | 1016.0 |
| 20260503174048 | 14 | 273 | 6.4 | 12.9 | 0.00 | 0.00 | 0.00 | 41 | 1016.0 |
| 20260503173548 | 13 | 68 | 4.8 | 16.1 | 0.00 | 0.00 | 0.00 | 42 | 1016.0 |
| 20260503173051 | 13 | 315 | 4.8 | 16.1 | 0.00 | 0.00 | 0.00 | 42 | 1016.0 |
| 20260503172550 | 13 | 94 | 8.0 | 14.5 | 0.00 | 0.00 | 0.00 | 40 | 1016.2 |
| 20260503172048 | 13 | 4 | 4.8 | 17.7 | 0.00 | 0.00 | 0.00 | 44 | 1016.1 |
| 20260503171554 | 13 | 311 | 6.4 | 17.7 | 0.00 | 0.00 | 0.00 | 45 | 1016.1 |
| 20260503171052 | 13 | 288 | 4.8 | 14.5 | 0.00 | 0.00 | 0.00 | 42 | 1016.0 |
| 20260503170551 | 14 | 321 | 3.2 | 17.7 | 0.00 | 0.00 | 0.00 | 44 | 1016.2 |
| 20260503160106 | 13 | 314 | 3.2 | 11.3 | 0.00 | 0.00 | 0.00 | 43 | 1016.5 |
| 20260503150549 | 11 | 318 | 4.8 | 17.7 | 0.00 | 0.00 | 0.00 | 47 | 1016.6 |
| 20260503131050 | 8 | 259 | 6.4 | 17.7 | 0.00 | 0.00 | 0.00 | 53 | 1016.8 |
| 20260503130551 | 8 | 324 | 8.0 | 16.1 | 0.00 | 0.00 | 0.00 | 55 | 1016.8 |